Fort Lewis, WA

4:29 AM PDT on May 23, 2017 (GMT -0700)
Gray Army Air Field

Weather History for KGRF - July, 2013

Change the Weather History Date:

Monday, July 1, 2013

  Actual Average Record
Temperature  
Mean Temperature 76 °F -  
Max Temperature 88 °F 71 °F 92 °F (2014)
Min Temperature 63 °F 50 °F 41 °F (2011)
Cooling Degree Days 10    
Growing Degree Days 26 (Base 50)    
Moisture  
Dew Point 61 °F    
Average Humidity 66    
Maximum Humidity 88    
Minimum Humidity 46    
Precipitation  
Precipitation 0.00 in - - ()
Sea Level Pressure  
Sea Level Pressure 29.97 in    
Wind  
Wind Speed 5 mph (West)    
Max Wind Speed 12 mph    
Max Gust Speed -    
Visibility 10 miles    
Events Rain    
Averages and records for this station are not official NWS values.
T = Trace of Precipitation, MM = Missing Value Source: NWS Daily Summary

Daily Weather History Graph

Daily Weather History Graph

Search for Another Location

Airport or City:

Trip Planner

Search our weather history database for the weather conditions in past years. The results will help you decide how hot, cold, wet, or windy it might be!

Date:

Astronomy

Jul. 01, 2013 Rise Set
Actual Time 5:19 AM PDT 9:09 PM PDT
Civil Twilight 4:39 AM PDT 9:48 PM PDT
Nautical Twilight 3:45 AM PDT 10:42 PM PDT
Astronomical Twilight 2:25 AM PDT 12:01 AM PDT
Moon 1:07 AM PDT (7/1) 3:16 PM PDT (7/1)
Length of Visible Light 17h 09m
Length of Day
15h 49m
Waning Crescent, 34% of the Moon is Illuminated
Jul 1
Waning Crescent
Jul 8
New
Jul 15
First Quarter
Jul 22
Full
Jul 29
Last Quarter

Hourly Weather History & Observations

Time (PDT) Temp. Heat Index Dew Point Humidity Pressure Visibility Wind Dir Wind Speed Gust Speed Precip Events Conditions
12:58 AM 73.9 °F - 60.8 °F 63% 29.94 in 10.0 mi West 2.3 mph - N/A   Clear
1:58 AM 71.1 °F - 60.1 °F 68% 29.94 in 10.0 mi West 6.9 mph - N/A   Clear
2:58 AM 68.0 °F - 59.2 °F 73% 29.94 in 10.0 mi West 5.8 mph - N/A   Clear
3:58 AM 65.8 °F - 59.0 °F 79% 29.95 in 10.0 mi West 4.6 mph - N/A   Clear
4:58 AM 64.0 °F - 58.8 °F 83% 29.96 in 10.0 mi West 6.9 mph - N/A   Clear
5:58 AM 63.0 °F - 59.4 °F 88% 29.97 in 10.0 mi West 8.1 mph - N/A   Clear
6:58 AM 63.7 °F - 60.1 °F 88% 29.98 in 10.0 mi West 4.6 mph - N/A   Clear
7:58 AM 65.1 °F - 60.3 °F 84% 29.99 in 10.0 mi West 2.3 mph - N/A   Clear
8:35 AM 68.0 °F - 60.8 °F 78% 29.97 in 10.0 mi Variable 2.3 mph - N/A Rain Heavy Rain
8:45 AM 68.0 °F - 60.8 °F 78% 29.97 in 10.0 mi WSW 3.5 mph - N/A   Clear
8:58 AM 68.4 °F - 60.4 °F 76% 29.97 in 10.0 mi Variable 2.3 mph - 0.00 in   Clear
9:58 AM 72.1 °F - 61.3 °F 69% 29.96 in 10.0 mi Variable 3.5 mph - N/A   Clear
10:58 AM 75.7 °F - 61.7 °F 62% 29.96 in 10.0 mi West 2.3 mph - N/A   Clear
11:58 AM 79.5 °F - 63.0 °F 57% 29.96 in 10.0 mi WSW 6.9 mph - N/A   Partly Cloudy
12:58 PM 81.7 °F 83.0 °F 63.5 °F 54% 29.96 in 10.0 mi NW 3.5 mph - N/A   Clear
1:58 PM 84.4 °F 85.6 °F 64.0 °F 50% 29.96 in 10.0 mi Variable 3.5 mph - N/A   Clear
2:58 PM 86.4 °F 87.6 °F 63.7 °F 47% 29.96 in 10.0 mi WSW 9.2 mph - N/A   Clear
3:58 PM 87.1 °F 88.3 °F 64.2 °F 46% 29.97 in 10.0 mi WSW 8.1 mph - N/A   Clear
4:58 PM 88.0 °F 89.6 °F 64.8 °F 46% 29.96 in 10.0 mi West 6.9 mph - N/A   Clear
5:58 PM 84.6 °F 86.6 °F 65.7 °F 53% 29.97 in 10.0 mi West 11.5 mph - N/A   Clear
6:58 PM 83.7 °F 84.9 °F 64.0 °F 51% 29.97 in 10.0 mi West 8.1 mph - N/A   Clear
7:58 PM 79.0 °F - 61.7 °F 55% 29.99 in 10.0 mi West 10.4 mph - N/A   Clear
8:58 PM 74.3 °F - 60.1 °F 61% 30.00 in 10.0 mi West 4.6 mph - N/A   Clear
9:58 PM 72.3 °F - 59.7 °F 64% 30.01 in 10.0 mi NW 3.5 mph - N/A   Clear
10:58 PM 69.1 °F - 57.2 °F 66% 30.02 in 10.0 mi West 4.6 mph - N/A   Clear
11:58 PM 66.4 °F - 57.0 °F 72% 30.05 in 10.0 mi West 8.1 mph - N/A   Clear